Time,TemperatureF,DewpointF,PressureIn,WindDirection,WindDirectionDegrees,WindSpeedMPH,WindSpeedGustMPH,Humidity,HourlyPrecipIn,Conditions,Clouds,dailyrainin,SolarRadiationWatts/m^2,SoftwareType,DateUTC
2013-04-15 00:00:00,35.6,19.3,29.78,WNW,292,6.0,12.0,51,0.00,,,0.00,0,WeatherCatV1.15B25,2013-04-15 06:00:00,
2013-04-15 00:05:00,35.8,20.4,29.77,NW,315,5.0,11.0,53,0.00,,,0.00,0,WeatherCatV1.15B25,2013-04-15 06:05:00,
2013-04-15 00:10:00,35.8,20.4,29.77,NW,315,5.0,11.0,53,0.00,,,0.00,0,WeatherCatV1.15B25,2013-04-15 06:10:00,
2013-04-15 00:15:00,35.8,20.4,29.77,NW,315,5.0,11.0,53,0.00,,,0.00,0,WeatherCatV1.15B25,2013-04-15 06:15:00,
2013-04-15 00:20:00,35.0,21.3,29.78,SSW,202,2.0,7.0,57,0.00,,,0.00,0,WeatherCatV1.15B25,2013-04-15 06:20:00,
2013-04-15 00:25:00,35.0,21.3,29.78,SSW,202,2.0,7.0,57,0.00,,,0.00,0,WeatherCatV1.15B25,2013-04-15 06:25:00,
2013-04-15 00:30:00,35.0,21.3,29.78,SSW,202,2.0,7.0,57,0.00,,,0.00,0,WeatherCatV1.15B25,2013-04-15 06:30:00,
2013-04-15 00:35:00,35.0,20.5,29.78,SSW,202,2.0,7.0,55,0.00,,,0.00,0,WeatherCatV1.15B25,2013-04-15 06:35:00,
2013-04-15 00:40:00,35.0,20.5,29.78,SSW,202,2.0,7.0,55,0.00,,,0.00,0,WeatherCatV1.15B25,2013-04-15 06:40:00,
2013-04-15 00:45:00,35.0,20.5,29.78,SSW,202,2.0,7.0,55,0.00,,,0.00,0,WeatherCatV1.15B25,2013-04-15 06:45:00,
2013-04-15 00:50:00,35.0,20.5,29.78,SSW,202,2.0,7.0,55,0.00,,,0.00,0,WeatherCatV1.15B25,2013-04-15 06:50:00,
2013-04-15 00:55:00,34.7,21.5,29.78,SSW,202,1.0,6.0,58,0.00,,,0.00,0,WeatherCatV1.15B25,2013-04-15 06:55:00,
2013-04-15 01:00:00,34.7,21.5,29.78,SSW,202,1.0,6.0,58,0.00,,,0.00,0,WeatherCatV1.15B25,2013-04-15 07:00:00,
2013-04-15 01:05:00,34.7,21.5,29.78,SSW,202,1.0,6.0,58,0.00,,,0.00,0,WeatherCatV1.15B25,2013-04-15 07:05:00,
2013-04-15 01:10:00,34.3,21.9,29.77,SSW,202,2.0,8.0,60,0.00,,,0.00,0,WeatherCatV1.15B25,2013-04-15 07:10:00,
2013-04-15 01:15:00,34.3,21.9,29.77,SSW,202,2.0,8.0,60,0.00,,,0.00,0,WeatherCatV1.15B25,2013-04-15 07:15:00,
2013-04-15 01:20:00,34.3,21.9,29.77,SSW,202,2.0,8.0,60,0.00,,,0.00,0,WeatherCatV1.15B25,2013-04-15 07:20:00,
2013-04-15 01:25:00,34.1,21.3,29.78,NW,315,2.0,5.0,59,0.00,,,0.00,0,WeatherCatV1.15B25,2013-04-15 07:25:00,
2013-04-15 01:30:00,34.1,21.3,29.78,NW,315,2.0,5.0,59,0.00,,,0.00,0,WeatherCatV1.15B25,2013-04-15 07:30:00,
2013-04-15 01:35:00,34.1,21.3,29.78,NW,315,2.0,5.0,59,0.00,,,0.00,0,WeatherCatV1.15B25,2013-04-15 07:35:00,
2013-04-15 01:40:00,34.1,20.1,29.79,NW,315,1.0,6.0,56,0.00,,,0.00,0,WeatherCatV1.15B25,2013-04-15 07:40:00,
2013-04-15 01:45:00,34.1,20.1,29.79,NW,315,1.0,6.0,56,0.00,,,0.00,0,WeatherCatV1.15B25,2013-04-15 07:45:00,
2013-04-15 01:50:00,34.1,20.1,29.79,NW,315,1.0,6.0,56,0.00,,,0.00,0,WeatherCatV1.15B25,2013-04-15 07:50:00,
2013-04-15 01:55:00,33.2,19.6,29.79,East,90,4.0,11.0,57,0.00,,,0.00,0,WeatherCatV1.15B25,2013-04-15 07:55:00,
2013-04-15 02:00:00,33.2,19.6,29.79,East,90,4.0,11.0,57,0.00,,,0.00,0,WeatherCatV1.15B25,2013-04-15 08:00:00,
2013-04-15 02:05:00,33.2,19.6,29.79,East,90,4.0,11.0,57,0.00,,,0.00,0,WeatherCatV1.15B25,2013-04-15 08:05:00,
2013-04-15 02:10:00,32.5,21.7,29.79,East,90,2.0,8.0,64,0.00,,,0.00,0,WeatherCatV1.15B25,2013-04-15 08:10:00,
2013-04-15 02:15:00,32.5,21.7,29.79,East,90,2.0,8.0,64,0.00,,,0.00,0,WeatherCatV1.15B25,2013-04-15 08:15:00,
2013-04-15 02:20:00,32.5,21.7,29.79,East,90,2.0,8.0,64,0.00,,,0.00,0,WeatherCatV1.15B25,2013-04-15 08:20:00,
2013-04-15 02:25:00,30.3,23.0,29.79,SE,135,1.0,10.0,74,0.00,,,0.00,0,WeatherCatV1.15B25,2013-04-15 08:25:00,
2013-04-15 02:30:00,30.3,23.0,29.79,SE,135,1.0,10.0,74,0.00,,,0.00,0,WeatherCatV1.15B25,2013-04-15 08:30:00,
2013-04-15 02:35:00,30.3,23.0,29.79,SE,135,1.0,10.0,74,0.00,,,0.00,0,WeatherCatV1.15B25,2013-04-15 08:35:00,
2013-04-15 02:40:00,28.8,23.1,29.79,East,90,1.0,6.0,79,0.00,,,0.00,0,WeatherCatV1.15B25,2013-04-15 08:40:00,
2013-04-15 02:45:00,28.8,23.1,29.79,East,90,1.0,6.0,79,0.00,,,0.00,0,WeatherCatV1.15B25,2013-04-15 08:45:00,
2013-04-15 02:50:00,28.8,23.1,29.79,East,90,1.0,6.0,79,0.00,,,0.00,0,WeatherCatV1.15B25,2013-04-15 08:50:00,
2013-04-15 02:55:00,28.1,23.0,29.79,East,90,0.0,4.0,81,0.00,,,0.00,0,WeatherCatV1.15B25,2013-04-15 08:55:00,
2013-04-15 03:00:00,28.1,23.0,29.79,East,90,0.0,4.0,81,0.00,,,0.00,0,WeatherCatV1.15B25,2013-04-15 09:00:00,
2013-04-15 03:05:00,27.8,23.3,29.77,WNW,292,4.0,7.0,83,0.00,,,0.00,0,WeatherCatV1.15B25,2013-04-15 09:05:00,
2013-04-15 03:10:00,27.8,23.3,29.77,WNW,292,4.0,7.0,83,0.00,,,0.00,0,WeatherCatV1.15B25,2013-04-15 09:10:00,
2013-04-15 03:15:00,27.8,23.3,29.77,WNW,292,4.0,7.0,83,0.00,,,0.00,0,WeatherCatV1.15B25,2013-04-15 09:15:00,
2013-04-15 03:20:00,27.0,21.1,29.77,WNW,292,4.0,8.0,78,0.00,,,0.00,0,WeatherCatV1.15B25,2013-04-15 09:20:00,
2013-04-15 03:25:00,27.0,21.1,29.77,WNW,292,4.0,8.0,78,0.00,,,0.00,0,WeatherCatV1.15B25,2013-04-15 09:25:00,
2013-04-15 03:30:00,27.0,21.1,29.77,WNW,292,4.0,8.0,78,0.00,,,0.00,0,WeatherCatV1.15B25,2013-04-15 09:30:00,
2013-04-15 03:35:00,26.4,19.3,29.76,NW,315,4.0,8.0,74,0.00,,,0.00,0,WeatherCatV1.15B25,2013-04-15 09:35:00,
2013-04-15 03:40:00,26.4,19.3,29.76,NW,315,4.0,8.0,74,0.00,,,0.00,0,WeatherCatV1.15B25,2013-04-15 09:40:00,
2013-04-15 03:45:00,26.4,19.3,29.76,NW,315,4.0,8.0,74,0.00,,,0.00,0,WeatherCatV1.15B25,2013-04-15 09:45:00,
2013-04-15 03:50:00,26.0,19.5,29.76,WNW,292,6.0,10.0,76,0.00,,,0.00,0,WeatherCatV1.15B25,2013-04-15 09:50:00,
2013-04-15 03:55:00,26.0,19.5,29.76,WNW,292,6.0,10.0,76,0.00,,,0.00,0,WeatherCatV1.15B25,2013-04-15 09:55:00,
2013-04-15 04:00:00,26.0,19.5,29.76,WNW,292,6.0,10.0,76,0.00,,,0.00,0,WeatherCatV1.15B25,2013-04-15 10:00:00,
2013-04-15 04:05:00,26.0,19.5,29.76,WNW,292,6.0,11.0,76,0.00,,,0.00,0,WeatherCatV1.15B25,2013-04-15 10:05:00,
2013-04-15 04:10:00,26.0,19.5,29.76,WNW,292,6.0,11.0,76,0.00,,,0.00,0,WeatherCatV1.15B25,2013-04-15 10:10:00,
2013-04-15 04:15:00,26.0,19.5,29.76,WNW,292,6.0,11.0,76,0.00,,,0.00,0,WeatherCatV1.15B25,2013-04-15 10:15:00,
2013-04-15 04:20:00,25.8,18.7,29.75,WNW,292,5.0,11.0,74,0.00,,,0.00,0,WeatherCatV1.15B25,2013-04-15 10:20:00,
2013-04-15 04:25:00,25.8,18.7,29.75,WNW,292,5.0,11.0,74,0.00,,,0.00,0,WeatherCatV1.15B25,2013-04-15 10:25:00,
2013-04-15 04:30:00,25.8,18.7,29.75,WNW,292,5.0,11.0,74,0.00,,,0.00,0,WeatherCatV1.15B25,2013-04-15 10:30:00,
2013-04-15 04:35:00,25.0,16.0,29.75,WNW,292,2.0,6.0,68,0.00,,,0.00,0,WeatherCatV1.15B25,2013-04-15 10:35:00,
2013-04-15 04:40:00,25.0,16.0,29.75,WNW,292,2.0,6.0,68,0.00,,,0.00,0,WeatherCatV1.15B25,2013-04-15 10:40:00,
2013-04-15 04:45:00,25.0,16.0,29.75,WNW,292,2.0,6.0,68,0.00,,,0.00,0,WeatherCatV1.15B25,2013-04-15 10:45:00,
2013-04-15 04:50:00,24.7,13.2,29.75,NW,315,4.0,8.0,61,0.00,,,0.00,0,WeatherCatV1.15B25,2013-04-15 10:50:00,
2013-04-15 04:55:00,24.7,13.2,29.75,NW,315,4.0,8.0,61,0.00,,,0.00,0,WeatherCatV1.15B25,2013-04-15 10:55:00,
2013-04-15 05:00:00,24.7,13.2,29.75,NW,315,4.0,8.0,61,0.00,,,0.00,0,WeatherCatV1.15B25,2013-04-15 11:00:00,
2013-04-15 05:05:00,24.4,12.9,29.75,NW,315,1.0,5.0,61,0.00,,,0.00,0,WeatherCatV1.15B25,2013-04-15 11:05:00,
2013-04-15 05:10:00,24.4,12.9,29.75,NW,315,1.0,5.0,61,0.00,,,0.00,0,WeatherCatV1.15B25,2013-04-15 11:10:00,
2013-04-15 05:15:00,24.4,12.9,29.75,NW,315,1.0,5.0,61,0.00,,,0.00,0,WeatherCatV1.15B25,2013-04-15 11:15:00,
2013-04-15 05:20:00,24.4,12.9,29.75,NW,315,1.0,5.0,61,0.00,,,0.00,0,WeatherCatV1.15B25,2013-04-15 11:20:00,
2013-04-15 05:25:00,23.5,13.8,29.74,NW,315,0.0,0.0,66,0.00,,,0.00,0,WeatherCatV1.15B25,2013-04-15 11:25:00,
2013-04-15 05:30:00,23.5,13.8,29.74,NW,315,0.0,0.0,66,0.00,,,0.00,0,WeatherCatV1.15B25,2013-04-15 11:30:00,
2013-04-15 05:35:00,23.5,13.8,29.74,NW,315,0.0,0.0,66,0.00,,,0.00,0,WeatherCatV1.15B25,2013-04-15 11:35:00,
2013-04-15 05:40:00,22.4,14.8,29.73,NW,315,1.0,3.0,72,0.00,,,0.00,0,WeatherCatV1.15B25,2013-04-15 11:40:00,
2013-04-15 05:45:00,22.4,14.8,29.73,NW,315,1.0,3.0,72,0.00,,,0.00,0,WeatherCatV1.15B25,2013-04-15 11:45:00,
2013-04-15 05:50:00,22.4,14.8,29.73,NW,315,1.0,3.0,72,0.00,,,0.00,0,WeatherCatV1.15B25,2013-04-15 11:50:00,
2013-04-15 05:55:00,21.9,15.2,29.73,NW,315,0.0,0.0,75,0.00,,,0.00,0,WeatherCatV1.15B25,2013-04-15 11:55:00,
2013-04-15 06:00:00,21.9,15.2,29.73,NW,315,0.0,0.0,75,0.00,,,0.00,0,WeatherCatV1.15B25,2013-04-15 12:00:00,
2013-04-15 06:05:00,21.9,15.2,29.73,NW,315,0.0,0.0,75,0.00,,,0.00,0,WeatherCatV1.15B25,2013-04-15 12:05:00,
2013-04-15 06:10:00,21.9,16.1,29.73,NW,315,0.0,0.0,78,0.00,,,0.00,0,WeatherCatV1.15B25,2013-04-15 12:10:00,
2013-04-15 06:15:00,21.9,16.1,29.73,NW,315,0.0,0.0,78,0.00,,,0.00,0,WeatherCatV1.15B25,2013-04-15 12:15:00,
2013-04-15 06:20:00,21.9,16.1,29.73,NW,315,0.0,0.0,78,0.00,,,0.00,0,WeatherCatV1.15B25,2013-04-15 12:20:00,
2013-04-15 06:25:00,22.4,16.3,29.73,NW,315,0.0,2.0,77,0.00,,,0.00,0,WeatherCatV1.15B25,2013-04-15 12:25:00,
2013-04-15 06:30:00,22.4,16.3,29.73,NW,315,0.0,2.0,77,0.00,,,0.00,0,WeatherCatV1.15B25,2013-04-15 12:30:00,
2013-04-15 06:35:00,22.4,16.3,29.73,NW,315,0.0,2.0,77,0.00,,,0.00,0,WeatherCatV1.15B25,2013-04-15 12:35:00,
2013-04-15 06:40:00,22.7,16.6,29.74,NW,315,0.0,0.0,77,0.00,,,0.00,0,WeatherCatV1.15B25,2013-04-15 12:40:00,
2013-04-15 06:45:00,22.7,16.6,29.74,NW,315,0.0,0.0,77,0.00,,,0.00,0,WeatherCatV1.15B25,2013-04-15 12:45:00,
2013-04-15 06:50:00,22.7,16.6,29.74,NW,315,0.0,0.0,77,0.00,,,0.00,0,WeatherCatV1.15B25,2013-04-15 12:50:00,
2013-04-15 06:55:00,23.0,17.5,29.74,NW,315,0.0,3.0,79,0.00,,,0.00,11,WeatherCatV1.15B25,2013-04-15 12:55:00,
2013-04-15 07:00:00,23.0,17.5,29.74,NW,315,0.0,3.0,79,0.00,,,0.00,11,WeatherCatV1.15B25,2013-04-15 13:00:00,
2013-04-15 07:05:00,23.0,17.5,29.74,NW,315,0.0,3.0,79,0.00,,,0.00,11,WeatherCatV1.15B25,2013-04-15 13:05:00,
2013-04-15 07:10:00,23.9,17.5,29.75,NW,315,0.0,2.0,76,0.00,,,0.00,31,WeatherCatV1.15B25,2013-04-15 13:10:00,
2013-04-15 07:15:00,23.9,17.5,29.75,NW,315,0.0,2.0,76,0.00,,,0.00,31,WeatherCatV1.15B25,2013-04-15 13:15:00,
2013-04-15 07:20:00,23.9,17.5,29.75,NW,315,0.0,2.0,76,0.00,,,0.00,31,WeatherCatV1.15B25,2013-04-15 13:20:00,
2013-04-15 07:25:00,25.3,16.6,29.75,NW,315,0.0,0.0,69,0.00,,,0.00,62,WeatherCatV1.15B25,2013-04-15 13:25:00,
2013-04-15 07:30:00,25.3,16.6,29.75,NW,315,0.0,0.0,69,0.00,,,0.00,62,WeatherCatV1.15B25,2013-04-15 13:30:00,
2013-04-15 07:35:00,25.3,16.6,29.75,NW,315,0.0,0.0,69,0.00,,,0.00,62,WeatherCatV1.15B25,2013-04-15 13:35:00,
2013-04-15 07:40:00,27.6,14.8,29.76,NW,315,0.0,5.0,58,0.00,,,0.00,205,WeatherCatV1.15B25,2013-04-15 13:40:00,
2013-04-15 07:45:00,27.6,14.8,29.76,NW,315,0.0,5.0,58,0.00,,,0.00,205,WeatherCatV1.15B25,2013-04-15 13:45:00,
2013-04-15 07:50:00,27.6,14.8,29.76,NW,315,0.0,5.0,58,0.00,,,0.00,205,WeatherCatV1.15B25,2013-04-15 13:50:00,
2013-04-15 07:55:00,28.4,13.9,29.76,NW,315,1.0,5.0,54,0.00,,,0.00,161,WeatherCatV1.15B25,2013-04-15 13:55:00,
2013-04-15 08:00:00,28.4,13.9,29.76,NW,315,1.0,5.0,54,0.00,,,0.00,161,WeatherCatV1.15B25,2013-04-15 14:00:00,
2013-04-15 08:05:00,28.4,13.9,29.76,NW,315,1.0,5.0,54,0.00,,,0.00,161,WeatherCatV1.15B25,2013-04-15 14:05:00,
2013-04-15 08:10:00,28.5,14.8,29.77,NW,315,1.0,6.0,56,0.00,,,0.00,134,WeatherCatV1.15B25,2013-04-15 14:10:00,
2013-04-15 08:15:00,28.5,14.8,29.77,NW,315,1.0,6.0,56,0.00,,,0.00,134,WeatherCatV1.15B25,2013-04-15 14:15:00,
2013-04-15 08:20:00,28.5,14.8,29.77,NW,315,1.0,6.0,56,0.00,,,0.00,134,WeatherCatV1.15B25,2013-04-15 14:20:00,
2013-04-15 08:25:00,28.7,15.4,29.77,NW,315,1.0,6.0,57,0.00,,,0.00,106,WeatherCatV1.15B25,2013-04-15 14:25:00,
2013-04-15 08:30:00,28.7,15.4,29.77,NW,315,1.0,6.0,57,0.00,,,0.00,106,WeatherCatV1.15B25,2013-04-15 14:30:00,
2013-04-15 08:35:00,28.7,15.4,29.77,NW,315,1.0,6.0,57,0.00,,,0.00,106,WeatherCatV1.15B25,2013-04-15 14:35:00,
2013-04-15 08:40:00,29.0,16.1,29.76,NW,315,0.0,5.0,58,0.00,,,0.00,121,WeatherCatV1.15B25,2013-04-15 14:40:00,
2013-04-15 08:45:00,29.0,16.1,29.76,NW,315,0.0,5.0,58,0.00,,,0.00,121,WeatherCatV1.15B25,2013-04-15 14:45:00,
2013-04-15 08:50:00,29.0,16.1,29.76,NW,315,0.0,5.0,58,0.00,,,0.00,121,WeatherCatV1.15B25,2013-04-15 14:50:00,
2013-04-15 08:55:00,29.3,17.2,29.76,NW,315,1.0,5.0,60,0.00,,,0.00,157,WeatherCatV1.15B25,2013-04-15 14:55:00,
2013-04-15 09:00:00,29.3,17.2,29.76,NW,315,1.0,5.0,60,0.00,,,0.00,157,WeatherCatV1.15B25,2013-04-15 15:00:00,
2013-04-15 09:05:00,29.3,17.2,29.76,NW,315,1.0,5.0,60,0.00,,,0.00,157,WeatherCatV1.15B25,2013-04-15 15:05:00,
2013-04-15 09:10:00,30.6,18.4,29.76,NW,315,1.0,5.0,60,0.00,,,0.00,403,WeatherCatV1.15B25,2013-04-15 15:10:00,
2013-04-15 09:15:00,30.6,18.4,29.76,NW,315,1.0,5.0,60,0.00,,,0.00,403,WeatherCatV1.15B25,2013-04-15 15:15:00,
2013-04-15 09:20:00,30.6,18.4,29.76,NW,315,1.0,5.0,60,0.00,,,0.00,403,WeatherCatV1.15B25,2013-04-15 15:20:00,
2013-04-15 09:25:00,32.9,19.8,29.75,NW,315,0.0,3.0,58,0.00,,,0.00,463,WeatherCatV1.15B25,2013-04-15 15:25:00,
2013-04-15 09:30:00,32.9,19.8,29.75,NW,315,0.0,3.0,58,0.00,,,0.00,463,WeatherCatV1.15B25,2013-04-15 15:30:00,
2013-04-15 09:35:00,33.4,19.4,29.75,SSE,158,1.0,6.0,56,0.00,,,0.00,495,WeatherCatV1.15B25,2013-04-15 15:35:00,
2013-04-15 09:40:00,33.4,19.4,29.75,SSE,158,1.0,6.0,56,0.00,,,0.00,495,WeatherCatV1.15B25,2013-04-15 15:40:00,
2013-04-15 09:45:00,33.4,19.4,29.75,SSE,158,1.0,6.0,56,0.00,,,0.00,495,WeatherCatV1.15B25,2013-04-15 15:45:00,
2013-04-15 09:50:00,34.6,20.5,29.74,SSE,158,0.0,3.0,56,0.00,,,0.00,558,WeatherCatV1.15B25,2013-04-15 15:50:00,
2013-04-15 09:55:00,34.6,20.5,29.74,SSE,158,0.0,3.0,56,0.00,,,0.00,558,WeatherCatV1.15B25,2013-04-15 15:55:00,
2013-04-15 10:00:00,34.6,20.5,29.74,SSE,158,0.0,3.0,56,0.00,,,0.00,558,WeatherCatV1.15B25,2013-04-15 16:00:00,
2013-04-15 10:05:00,36.2,22.4,29.74,SSE,158,2.0,8.0,57,0.00,,,0.00,776,WeatherCatV1.15B25,2013-04-15 16:05:00,
2013-04-15 10:10:00,36.2,22.4,29.74,SSE,158,2.0,8.0,57,0.00,,,0.00,776,WeatherCatV1.15B25,2013-04-15 16:10:00,
2013-04-15 10:15:00,36.2,22.4,29.74,SSE,158,2.0,8.0,57,0.00,,,0.00,776,WeatherCatV1.15B25,2013-04-15 16:15:00,
2013-04-15 10:20:00,37.3,23.1,29.74,SE,135,6.0,12.0,56,0.00,,,0.00,820,WeatherCatV1.15B25,2013-04-15 16:20:00,
2013-04-15 10:25:00,37.3,23.1,29.74,SE,135,6.0,12.0,56,0.00,,,0.00,820,WeatherCatV1.15B25,2013-04-15 16:25:00,
2013-04-15 10:30:00,37.3,23.1,29.74,SE,135,6.0,12.0,56,0.00,,,0.00,820,WeatherCatV1.15B25,2013-04-15 16:30:00,
2013-04-15 10:35:00,38.2,24.7,29.74,ESE,112,6.0,12.0,58,0.00,,,0.00,874,WeatherCatV1.15B25,2013-04-15 16:35:00,
2013-04-15 10:40:00,38.2,24.7,29.74,ESE,112,6.0,12.0,58,0.00,,,0.00,874,WeatherCatV1.15B25,2013-04-15 16:40:00,
2013-04-15 10:45:00,38.2,24.7,29.74,ESE,112,6.0,12.0,58,0.00,,,0.00,874,WeatherCatV1.15B25,2013-04-15 16:45:00,
2013-04-15 10:50:00,38.5,25.0,29.73,ESE,112,6.0,11.0,58,0.00,,,0.00,747,WeatherCatV1.15B25,2013-04-15 16:50:00,
2013-04-15 10:55:00,38.5,25.0,29.73,ESE,112,6.0,11.0,58,0.00,,,0.00,747,WeatherCatV1.15B25,2013-04-15 16:55:00,
2013-04-15 11:00:00,38.5,25.0,29.73,ESE,112,6.0,11.0,58,0.00,,,0.00,747,WeatherCatV1.15B25,2013-04-15 17:00:00,
2013-04-15 11:05:00,41.9,26.0,29.72,SSE,158,7.0,21.0,53,0.00,,,0.00,942,WeatherCatV1.15B25,2013-04-15 17:05:00,
2013-04-15 11:10:00,41.9,26.0,29.72,SSE,158,7.0,21.0,53,0.00,,,0.00,942,WeatherCatV1.15B25,2013-04-15 17:10:00,
2013-04-15 11:15:00,41.9,26.0,29.72,SSE,158,7.0,21.0,53,0.00,,,0.00,942,WeatherCatV1.15B25,2013-04-15 17:15:00,
2013-04-15 11:20:00,45.2,25.1,29.71,South,180,9.0,24.0,45,0.00,,,0.00,999,WeatherCatV1.15B25,2013-04-15 17:20:00,
2013-04-15 11:25:00,45.2,25.1,29.71,South,180,9.0,24.0,45,0.00,,,0.00,999,WeatherCatV1.15B25,2013-04-15 17:25:00,
2013-04-15 11:30:00,45.2,25.1,29.71,South,180,9.0,24.0,45,0.00,,,0.00,999,WeatherCatV1.15B25,2013-04-15 17:30:00,
2013-04-15 11:35:00,50.8,24.2,29.71,SSW,202,11.0,28.0,35,0.00,,,0.00,828,WeatherCatV1.15B25,2013-04-15 17:35:00,
2013-04-15 11:40:00,50.8,24.2,29.71,SSW,202,11.0,28.0,35,0.00,,,0.00,828,WeatherCatV1.15B25,2013-04-15 17:40:00,
2013-04-15 11:45:00,50.8,24.2,29.71,SSW,202,11.0,28.0,35,0.00,,,0.00,828,WeatherCatV1.15B25,2013-04-15 17:45:00,
2013-04-15 11:50:00,50.4,27.0,29.71,WSW,248,9.0,26.0,40,0.00,,,0.00,568,WeatherCatV1.15B25,2013-04-15 17:50:00,
2013-04-15 11:55:00,50.4,27.0,29.71,WSW,248,9.0,26.0,40,0.00,,,0.00,568,WeatherCatV1.15B25,2013-04-15 17:55:00,
2013-04-15 12:00:00,50.4,27.0,29.71,WSW,248,9.0,26.0,40,0.00,,,0.00,568,WeatherCatV1.15B25,2013-04-15 18:00:00,
2013-04-15 12:05:00,43.9,31.7,29.73,NNW,338,13.0,25.0,62,0.00,,,0.00,325,WeatherCatV1.15B25,2013-04-15 18:05:00,
2013-04-15 12:10:00,43.9,31.7,29.73,NNW,338,13.0,25.0,62,0.00,,,0.00,325,WeatherCatV1.15B25,2013-04-15 18:10:00,
2013-04-15 12:15:00,43.9,31.7,29.73,NNW,338,13.0,25.0,62,0.00,,,0.00,325,WeatherCatV1.15B25,2013-04-15 18:15:00,
2013-04-15 12:20:00,42.3,31.8,29.73,North,0,9.0,19.0,66,0.00,,,0.00,378,WeatherCatV1.15B25,2013-04-15 18:20:00,
2013-04-15 12:25:00,42.3,31.8,29.73,North,0,9.0,19.0,66,0.00,,,0.00,378,WeatherCatV1.15B25,2013-04-15 18:25:00,
2013-04-15 12:30:00,42.3,31.8,29.73,North,0,9.0,19.0,66,0.00,,,0.00,378,WeatherCatV1.15B25,2013-04-15 18:30:00,
2013-04-15 12:35:00,42.6,31.7,29.73,North,0,11.0,25.0,65,0.00,,,0.00,393,WeatherCatV1.15B25,2013-04-15 18:35:00,
2013-04-15 12:40:00,42.6,31.7,29.73,North,0,11.0,25.0,65,0.00,,,0.00,393,WeatherCatV1.15B25,2013-04-15 18:40:00,
2013-04-15 12:45:00,42.6,31.7,29.73,North,0,11.0,25.0,65,0.00,,,0.00,393,WeatherCatV1.15B25,2013-04-15 18:45:00,
2013-04-15 12:50:00,44.9,31.0,29.73,NW,315,10.0,19.0,58,0.00,,,0.00,643,WeatherCatV1.15B25,2013-04-15 18:50:00,
2013-04-15 12:55:00,44.9,31.0,29.73,NW,315,10.0,19.0,58,0.00,,,0.00,643,WeatherCatV1.15B25,2013-04-15 18:55:00,
2013-04-15 13:00:00,44.9,31.0,29.73,NW,315,10.0,19.0,58,0.00,,,0.00,643,WeatherCatV1.15B25,2013-04-15 19:00:00,
2013-04-15 13:05:00,47.9,30.2,29.72,NW,315,10.0,21.0,50,0.00,,,0.00,870,WeatherCatV1.15B25,2013-04-15 19:05:00,
2013-04-15 13:10:00,47.9,30.2,29.72,NW,315,10.0,21.0,50,0.00,,,0.00,870,WeatherCatV1.15B25,2013-04-15 19:10:00,
2013-04-15 13:15:00,47.9,30.2,29.72,NW,315,10.0,21.0,50,0.00,,,0.00,870,WeatherCatV1.15B25,2013-04-15 19:15:00,
2013-04-15 13:20:00,48.2,30.4,29.71,NW,315,9.0,18.0,50,0.00,,,0.00,633,WeatherCatV1.15B25,2013-04-15 19:20:00,
2013-04-15 13:25:00,48.2,30.4,29.71,NW,315,9.0,18.0,50,0.00,,,0.00,633,WeatherCatV1.15B25,2013-04-15 19:25:00,
2013-04-15 13:30:00,48.2,30.4,29.71,NW,315,9.0,18.0,50,0.00,,,0.00,633,WeatherCatV1.15B25,2013-04-15 19:30:00,
2013-04-15 13:35:00,46.1,29.9,29.71,NNW,338,13.0,24.0,53,0.00,,,0.00,329,WeatherCatV1.15B25,2013-04-15 19:35:00,
2013-04-15 13:40:00,46.1,29.9,29.71,NNW,338,13.0,24.0,53,0.00,,,0.00,329,WeatherCatV1.15B25,2013-04-15 19:40:00,
2013-04-15 13:45:00,46.1,29.9,29.71,NNW,338,13.0,24.0,53,0.00,,,0.00,329,WeatherCatV1.15B25,2013-04-15 19:45:00,
2013-04-15 13:50:00,46.1,29.9,29.71,NNW,338,13.0,24.0,53,0.00,,,0.00,329,WeatherCatV1.15B25,2013-04-15 19:50:00,
2013-04-15 13:55:00,44.2,30.8,29.73,NW,315,10.0,19.0,59,0.00,,,0.00,183,WeatherCatV1.15B25,2013-04-15 19:55:00,
2013-04-15 14:00:00,44.2,30.8,29.73,NW,315,10.0,19.0,59,0.00,,,0.00,183,WeatherCatV1.15B25,2013-04-15 20:00:00,
2013-04-15 14:05:00,44.2,30.8,29.73,NW,315,10.0,19.0,59,0.00,,,0.00,183,WeatherCatV1.15B25,2013-04-15 20:05:00,
2013-04-15 14:10:00,44.3,31.7,29.72,NNW,338,8.0,19.0,61,0.00,,,0.00,349,WeatherCatV1.15B25,2013-04-15 20:10:00,
2013-04-15 14:15:00,44.3,31.7,29.72,NNW,338,8.0,19.0,61,0.00,,,0.00,349,WeatherCatV1.15B25,2013-04-15 20:15:00,
2013-04-15 14:20:00,44.3,31.7,29.72,NNW,338,8.0,19.0,61,0.00,,,0.00,349,WeatherCatV1.15B25,2013-04-15 20:20:00,
2013-04-15 14:25:00,45.8,30.6,29.72,NNW,338,8.0,18.0,55,0.00,,,0.00,371,WeatherCatV1.15B25,2013-04-15 20:25:00,
2013-04-15 14:30:00,45.8,30.6,29.72,NNW,338,8.0,18.0,55,0.00,,,0.00,371,WeatherCatV1.15B25,2013-04-15 20:30:00,
2013-04-15 14:35:00,45.8,30.6,29.72,NNW,338,8.0,18.0,55,0.00,,,0.00,371,WeatherCatV1.15B25,2013-04-15 20:35:00,
2013-04-15 14:40:00,48.0,28.7,29.72,NNW,338,6.0,13.0,47,0.00,,,0.00,409,WeatherCatV1.15B25,2013-04-15 20:40:00,
2013-04-15 14:45:00,48.0,28.7,29.72,NNW,338,6.0,13.0,47,0.00,,,0.00,409,WeatherCatV1.15B25,2013-04-15 20:45:00,
2013-04-15 14:50:00,48.0,28.7,29.72,NNW,338,6.0,13.0,47,0.00,,,0.00,409,WeatherCatV1.15B25,2013-04-15 20:50:00,
2013-04-15 14:55:00,49.5,29.0,29.72,NNW,338,4.0,13.0,45,0.00,,,0.00,360,WeatherCatV1.15B25,2013-04-15 20:55:00,
2013-04-15 15:00:00,49.5,29.0,29.72,NNW,338,4.0,13.0,45,0.00,,,0.00,360,WeatherCatV1.15B25,2013-04-15 21:00:00,
2013-04-15 15:05:00,49.5,29.0,29.72,NNW,338,4.0,13.0,45,0.00,,,0.00,360,WeatherCatV1.15B25,2013-04-15 21:05:00,
2013-04-15 15:10:00,48.9,26.8,29.72,WSW,248,6.0,14.0,42,0.00,,,0.00,317,WeatherCatV1.15B25,2013-04-15 21:10:00,
2013-04-15 15:15:00,48.9,26.8,29.72,WSW,248,6.0,14.0,42,0.00,,,0.00,317,WeatherCatV1.15B25,2013-04-15 21:15:00,
2013-04-15 15:20:00,48.9,26.8,29.72,WSW,248,6.0,14.0,42,0.00,,,0.00,317,WeatherCatV1.15B25,2013-04-15 21:20:00,
2013-04-15 15:25:00,48.9,28.0,29.72,NNW,338,8.0,18.0,44,0.00,,,0.00,276,WeatherCatV1.15B25,2013-04-15 21:25:00,
2013-04-15 15:30:00,48.9,28.0,29.72,NNW,338,8.0,18.0,44,0.00,,,0.00,276,WeatherCatV1.15B25,2013-04-15 21:30:00,
2013-04-15 15:35:00,48.9,28.0,29.72,NNW,338,8.0,18.0,44,0.00,,,0.00,276,WeatherCatV1.15B25,2013-04-15 21:35:00,
2013-04-15 15:40:00,49.2,28.2,29.72,NNW,338,6.0,16.0,44,0.00,,,0.00,202,WeatherCatV1.15B25,2013-04-15 21:40:00,
2013-04-15 15:45:00,49.2,28.2,29.72,NNW,338,6.0,16.0,44,0.00,,,0.00,202,WeatherCatV1.15B25,2013-04-15 21:45:00,
2013-04-15 15:50:00,49.2,28.2,29.72,NNW,338,6.0,16.0,44,0.00,,,0.00,202,WeatherCatV1.15B25,2013-04-15 21:50:00,
2013-04-15 15:55:00,49.9,27.7,29.71,NW,315,7.0,21.0,42,0.00,,,0.00,278,WeatherCatV1.15B25,2013-04-15 21:55:00,
2013-04-15 16:00:00,49.9,27.7,29.71,NW,315,7.0,21.0,42,0.00,,,0.00,278,WeatherCatV1.15B25,2013-04-15 22:00:00,
2013-04-15 16:05:00,49.9,27.7,29.71,NW,315,7.0,21.0,42,0.00,,,0.00,278,WeatherCatV1.15B25,2013-04-15 22:05:00,
2013-04-15 16:10:00,50.1,27.9,29.72,WNW,292,7.0,16.0,42,0.00,,,0.00,280,WeatherCatV1.15B25,2013-04-15 22:10:00,
2013-04-15 16:15:00,50.1,27.9,29.72,WNW,292,7.0,16.0,42,0.00,,,0.00,280,WeatherCatV1.15B25,2013-04-15 22:15:00,
2013-04-15 16:20:00,50.1,27.9,29.72,WNW,292,7.0,16.0,42,0.00,,,0.00,280,WeatherCatV1.15B25,2013-04-15 22:20:00,
2013-04-15 16:25:00,51.0,26.3,29.72,WNW,292,6.0,19.0,38,0.00,,,0.00,347,WeatherCatV1.15B25,2013-04-15 22:25:00,
2013-04-15 16:30:00,51.0,26.3,29.72,WNW,292,6.0,19.0,38,0.00,,,0.00,347,WeatherCatV1.15B25,2013-04-15 22:30:00,
2013-04-15 16:35:00,51.0,26.3,29.72,WNW,292,6.0,19.0,38,0.00,,,0.00,347,WeatherCatV1.15B25,2013-04-15 22:35:00,
2013-04-15 16:40:00,51.0,26.3,29.72,NW,315,8.0,18.0,38,0.00,,,0.00,252,WeatherCatV1.15B25,2013-04-15 22:40:00,
2013-04-15 16:45:00,51.0,26.3,29.72,NW,315,8.0,18.0,38,0.00,,,0.00,252,WeatherCatV1.15B25,2013-04-15 22:45:00,
2013-04-15 16:50:00,51.0,26.3,29.72,NW,315,8.0,18.0,38,0.00,,,0.00,252,WeatherCatV1.15B25,2013-04-15 22:50:00,
2013-04-15 16:55:00,50.8,26.7,29.72,NW,315,5.0,16.0,39,0.00,,,0.00,239,WeatherCatV1.15B25,2013-04-15 22:55:00,
2013-04-15 17:00:00,50.8,26.7,29.72,NW,315,5.0,16.0,39,0.00,,,0.00,239,WeatherCatV1.15B25,2013-04-15 23:00:00,
2013-04-15 17:05:00,50.8,26.7,29.72,NW,315,5.0,16.0,39,0.00,,,0.00,239,WeatherCatV1.15B25,2013-04-15 23:05:00,
2013-04-15 17:10:00,51.0,26.3,29.72,SW,225,4.0,11.0,38,0.00,,,0.00,221,WeatherCatV1.15B25,2013-04-15 23:10:00,
2013-04-15 17:15:00,51.0,26.3,29.72,SW,225,4.0,11.0,38,0.00,,,0.00,221,WeatherCatV1.15B25,2013-04-15 23:15:00,
2013-04-15 17:20:00,51.0,26.3,29.72,SW,225,4.0,11.0,38,0.00,,,0.00,221,WeatherCatV1.15B25,2013-04-15 23:20:00,
2013-04-15 17:25:00,51.0,26.3,29.73,NW,315,5.0,10.0,38,0.00,,,0.00,212,WeatherCatV1.15B25,2013-04-15 23:25:00,
2013-04-15 17:30:00,51.0,26.3,29.73,NW,315,5.0,10.0,38,0.00,,,0.00,212,WeatherCatV1.15B25,2013-04-15 23:30:00,
2013-04-15 17:35:00,51.0,26.3,29.73,NW,315,5.0,10.0,38,0.00,,,0.00,212,WeatherCatV1.15B25,2013-04-15 23:35:00,
2013-04-15 17:40:00,51.6,26.8,29.73,NW,315,3.0,8.0,38,0.00,,,0.00,214,WeatherCatV1.15B25,2013-04-15 23:40:00,
2013-04-15 17:45:00,51.6,26.8,29.73,NW,315,3.0,8.0,38,0.00,,,0.00,214,WeatherCatV1.15B25,2013-04-15 23:45:00,
2013-04-15 17:50:00,51.1,27.0,29.73,North,0,7.0,16.0,39,0.00,,,0.00,186,WeatherCatV1.15B25,2013-04-15 23:50:00,
2013-04-15 17:55:00,51.1,27.0,29.73,North,0,7.0,16.0,39,0.00,,,0.00,186,WeatherCatV1.15B25,2013-04-15 23:55:00,
2013-04-15 18:00:00,51.1,27.0,29.73,North,0,7.0,16.0,39,0.00,,,0.00,186,WeatherCatV1.15B25,2013-04-16 00:00:00,
2013-04-15 18:05:00,50.4,26.4,29.74,NNW,338,7.0,14.0,39,0.00,,,0.00,167,WeatherCatV1.15B25,2013-04-16 00:05:00,
2013-04-15 18:10:00,50.4,26.4,29.74,NNW,338,7.0,14.0,39,0.00,,,0.00,167,WeatherCatV1.15B25,2013-04-16 00:10:00,
2013-04-15 18:15:00,50.4,26.4,29.74,NNW,338,7.0,14.0,39,0.00,,,0.00,167,WeatherCatV1.15B25,2013-04-16 00:15:00,
2013-04-15 18:20:00,49.9,26.5,29.74,NNW,338,7.0,12.0,40,0.00,,,0.00,152,WeatherCatV1.15B25,2013-04-16 00:20:00,
2013-04-15 18:25:00,49.9,26.5,29.74,NNW,338,7.0,12.0,40,0.00,,,0.00,152,WeatherCatV1.15B25,2013-04-16 00:25:00,
2013-04-15 18:30:00,49.9,26.5,29.74,NNW,338,7.0,12.0,40,0.00,,,0.00,152,WeatherCatV1.15B25,2013-04-16 00:30:00,
2013-04-15 18:35:00,49.2,27.1,29.74,NW,315,6.0,11.0,42,0.00,,,0.00,87,WeatherCatV1.15B25,2013-04-16 00:35:00,
2013-04-15 18:40:00,49.2,27.1,29.74,NW,315,6.0,11.0,42,0.00,,,0.00,87,WeatherCatV1.15B25,2013-04-16 00:40:00,
2013-04-15 18:45:00,49.2,27.1,29.74,NW,315,6.0,11.0,42,0.00,,,0.00,87,WeatherCatV1.15B25,2013-04-16 00:45:00,
2013-04-15 18:50:00,48.9,28.0,29.75,NW,315,5.0,13.0,44,0.00,,,0.00,74,WeatherCatV1.15B25,2013-04-16 00:50:00,
2013-04-15 18:55:00,48.9,28.0,29.75,NW,315,5.0,13.0,44,0.00,,,0.00,74,WeatherCatV1.15B25,2013-04-16 00:55:00,
2013-04-15 19:00:00,48.9,28.0,29.75,NW,315,5.0,13.0,44,0.00,,,0.00,74,WeatherCatV1.15B25,2013-04-16 01:00:00,
2013-04-15 19:05:00,48.3,28.5,29.76,WNW,292,4.0,11.0,46,0.00,,,0.00,53,WeatherCatV1.15B25,2013-04-16 01:05:00,
2013-04-15 19:10:00,48.3,28.5,29.76,WNW,292,4.0,11.0,46,0.00,,,0.00,53,WeatherCatV1.15B25,2013-04-16 01:10:00,
2013-04-15 19:15:00,48.3,28.5,29.76,WNW,292,4.0,11.0,46,0.00,,,0.00,53,WeatherCatV1.15B25,2013-04-16 01:15:00,
2013-04-15 19:20:00,43.2,28.6,29.76,SSW,202,4.0,11.0,56,0.00,,,0.00,41,WeatherCatV1.15B25,2013-04-16 01:20:00,
2013-04-15 19:25:00,43.2,28.6,29.76,SSW,202,4.0,11.0,56,0.00,,,0.00,41,WeatherCatV1.15B25,2013-04-16 01:25:00,
2013-04-15 19:30:00,43.2,28.6,29.76,SSW,202,4.0,11.0,56,0.00,,,0.00,41,WeatherCatV1.15B25,2013-04-16 01:30:00,
2013-04-15 19:35:00,40.8,28.0,29.77,ESE,112,4.0,11.0,60,0.00,,,0.00,22,WeatherCatV1.15B25,2013-04-16 01:35:00,
2013-04-15 19:40:00,40.8,28.0,29.77,ESE,112,4.0,11.0,60,0.00,,,0.00,22,WeatherCatV1.15B25,2013-04-16 01:40:00,
2013-04-15 19:45:00,40.8,28.0,29.77,ESE,112,4.0,11.0,60,0.00,,,0.00,22,WeatherCatV1.15B25,2013-04-16 01:45:00,
2013-04-15 19:50:00,40.1,27.8,29.78,ESE,112,1.0,7.0,61,0.00,,,0.00,9,WeatherCatV1.15B25,2013-04-16 01:50:00,
2013-04-15 19:55:00,40.1,27.8,29.78,ESE,112,1.0,7.0,61,0.00,,,0.00,9,WeatherCatV1.15B25,2013-04-16 01:55:00,
2013-04-15 20:00:00,40.1,27.8,29.78,ESE,112,1.0,7.0,61,0.00,,,0.00,9,WeatherCatV1.15B25,2013-04-16 02:00:00,
2013-04-15 20:05:00,39.5,27.6,29.78,East,90,1.0,6.0,62,0.00,,,0.00,1,WeatherCatV1.15B25,2013-04-16 02:05:00,
2013-04-15 20:10:00,39.5,27.6,29.78,East,90,1.0,6.0,62,0.00,,,0.00,1,WeatherCatV1.15B25,2013-04-16 02:10:00,
2013-04-15 20:15:00,39.5,27.6,29.78,East,90,1.0,6.0,62,0.00,,,0.00,1,WeatherCatV1.15B25,2013-04-16 02:15:00,
2013-04-15 20:20:00,38.5,27.8,29.79,East,90,0.0,3.0,65,0.00,,,0.00,0,WeatherCatV1.15B25,2013-04-16 02:20:00,
2013-04-15 20:25:00,38.5,27.8,29.79,East,90,0.0,3.0,65,0.00,,,0.00,0,WeatherCatV1.15B25,2013-04-16 02:25:00,
2013-04-15 20:30:00,38.5,27.8,29.79,East,90,0.0,3.0,65,0.00,,,0.00,0,WeatherCatV1.15B25,2013-04-16 02:30:00,
2013-04-15 20:35:00,36.8,27.6,29.80,East,90,0.0,0.0,69,0.00,,,0.00,0,WeatherCatV1.15B25,2013-04-16 02:35:00,
2013-04-15 20:40:00,36.8,27.6,29.80,East,90,0.0,0.0,69,0.00,,,0.00,0,WeatherCatV1.15B25,2013-04-16 02:40:00,
2013-04-15 20:45:00,36.8,27.6,29.80,East,90,0.0,0.0,69,0.00,,,0.00,0,WeatherCatV1.15B25,2013-04-16 02:45:00,
2013-04-15 20:50:00,35.0,26.9,29.81,East,90,0.0,0.0,72,0.00,,,0.00,0,WeatherCatV1.15B25,2013-04-16 02:50:00,
2013-04-15 20:55:00,35.0,26.9,29.81,East,90,0.0,0.0,72,0.00,,,0.00,0,WeatherCatV1.15B25,2013-04-16 02:55:00,
2013-04-15 21:00:00,35.0,26.9,29.81,East,90,0.0,0.0,72,0.00,,,0.00,0,WeatherCatV1.15B25,2013-04-16 03:00:00,
2013-04-15 21:05:00,34.0,26.9,29.82,East,90,1.0,7.0,75,0.00,,,0.00,0,WeatherCatV1.15B25,2013-04-16 03:05:00,
2013-04-15 21:10:00,34.0,26.9,29.82,East,90,1.0,7.0,75,0.00,,,0.00,0,WeatherCatV1.15B25,2013-04-16 03:10:00,
2013-04-15 21:15:00,34.0,26.9,29.82,East,90,1.0,7.0,75,0.00,,,0.00,0,WeatherCatV1.15B25,2013-04-16 03:15:00,
2013-04-15 21:20:00,34.9,26.8,29.83,ESE,112,3.0,11.0,72,0.00,,,0.00,0,WeatherCatV1.15B25,2013-04-16 03:20:00,
2013-04-15 21:25:00,34.9,26.8,29.83,ESE,112,3.0,11.0,72,0.00,,,0.00,0,WeatherCatV1.15B25,2013-04-16 03:25:00,
2013-04-15 21:30:00,34.9,26.8,29.83,ESE,112,3.0,11.0,72,0.00,,,0.00,0,WeatherCatV1.15B25,2013-04-16 03:30:00,
2013-04-15 21:35:00,34.0,26.9,29.83,NE,45,2.0,6.0,75,0.00,,,0.00,0,WeatherCatV1.15B25,2013-04-16 03:35:00,
2013-04-15 21:40:00,34.0,26.9,29.83,NE,45,2.0,6.0,75,0.00,,,0.00,0,WeatherCatV1.15B25,2013-04-16 03:40:00,
2013-04-15 21:45:00,34.0,26.9,29.83,NE,45,2.0,6.0,75,0.00,,,0.00,0,WeatherCatV1.15B25,2013-04-16 03:45:00,
2013-04-15 21:50:00,33.4,27.0,29.85,NNE,22,2.0,5.0,77,0.00,,,0.00,0,WeatherCatV1.15B25,2013-04-16 03:50:00,
2013-04-15 21:55:00,33.4,27.0,29.85,NNE,22,2.0,5.0,77,0.00,,,0.00,0,WeatherCatV1.15B25,2013-04-16 03:55:00,
2013-04-15 22:00:00,33.4,27.0,29.85,NNE,22,2.0,5.0,77,0.00,,,0.00,0,WeatherCatV1.15B25,2013-04-16 04:00:00,
2013-04-15 22:05:00,33.4,27.0,29.85,NNE,22,2.0,5.0,77,0.00,,,0.00,0,WeatherCatV1.15B25,2013-04-16 04:05:00,
2013-04-15 22:10:00,32.5,26.7,29.85,NNE,22,1.0,3.0,79,0.00,,,0.00,0,WeatherCatV1.15B25,2013-04-16 04:10:00,
2013-04-15 22:15:00,32.5,26.7,29.85,NNE,22,1.0,3.0,79,0.00,,,0.00,0,WeatherCatV1.15B25,2013-04-16 04:15:00,
2013-04-15 22:20:00,32.5,26.7,29.85,NNE,22,1.0,3.0,79,0.00,,,0.00,0,WeatherCatV1.15B25,2013-04-16 04:20:00,
2013-04-15 22:25:00,33.7,22.5,29.87,NE,45,3.0,11.0,63,0.00,,,0.00,0,WeatherCatV1.15B25,2013-04-16 04:25:00,
2013-04-15 22:30:00,33.7,22.5,29.87,NE,45,3.0,11.0,63,0.00,,,0.00,0,WeatherCatV1.15B25,2013-04-16 04:30:00,
2013-04-15 22:35:00,33.7,22.5,29.87,NE,45,3.0,11.0,63,0.00,,,0.00,0,WeatherCatV1.15B25,2013-04-16 04:35:00,
2013-04-15 22:40:00,34.1,20.1,29.88,NE,45,5.0,13.0,56,0.00,,,0.00,0,WeatherCatV1.15B25,2013-04-16 04:40:00,
2013-04-15 22:45:00,34.1,20.1,29.88,NE,45,5.0,13.0,56,0.00,,,0.00,0,WeatherCatV1.15B25,2013-04-16 04:45:00,
2013-04-15 22:50:00,34.1,20.1,29.88,NE,45,5.0,13.0,56,0.00,,,0.00,0,WeatherCatV1.15B25,2013-04-16 04:50:00,
2013-04-15 22:55:00,33.1,20.0,29.89,ENE,68,4.0,13.0,58,0.00,,,0.00,0,WeatherCatV1.15B25,2013-04-16 04:55:00,
2013-04-15 23:00:00,33.1,20.0,29.89,ENE,68,4.0,13.0,58,0.00,,,0.00,0,WeatherCatV1.15B25,2013-04-16 05:00:00,
2013-04-15 23:05:00,33.1,20.0,29.89,ENE,68,4.0,13.0,58,0.00,,,0.00,0,WeatherCatV1.15B25,2013-04-16 05:05:00,
2013-04-15 23:10:00,31.9,20.0,29.89,ENE,68,5.0,11.0,61,0.00,,,0.00,0,WeatherCatV1.15B25,2013-04-16 05:10:00,
2013-04-15 23:15:00,31.9,20.0,29.89,ENE,68,5.0,11.0,61,0.00,,,0.00,0,WeatherCatV1.15B25,2013-04-16 05:15:00,
2013-04-15 23:20:00,31.9,20.0,29.89,ENE,68,5.0,11.0,61,0.00,,,0.00,0,WeatherCatV1.15B25,2013-04-16 05:20:00,
2013-04-15 23:25:00,31.3,20.2,29.90,NE,45,2.0,8.0,63,0.00,,,0.00,0,WeatherCatV1.15B25,2013-04-16 05:25:00,
2013-04-15 23:30:00,31.3,20.2,29.90,NE,45,2.0,8.0,63,0.00,,,0.00,0,WeatherCatV1.15B25,2013-04-16 05:30:00,
2013-04-15 23:35:00,31.3,20.2,29.90,NE,45,2.0,8.0,63,0.00,,,0.00,0,WeatherCatV1.15B25,2013-04-16 05:35:00,
2013-04-15 23:40:00,30.6,19.9,29.90,East,90,5.0,13.0,64,0.00,,,0.00,0,WeatherCatV1.15B25,2013-04-16 05:40:00,
2013-04-15 23:45:00,30.6,19.9,29.90,East,90,5.0,13.0,64,0.00,,,0.00,0,WeatherCatV1.15B25,2013-04-16 05:45:00,
2013-04-15 23:50:00,30.6,19.9,29.90,East,90,5.0,13.0,64,0.00,,,0.00,0,WeatherCatV1.15B25,2013-04-16 05:50:00,
2013-04-15 23:55:00,29.8,19.9,29.90,NE,45,5.0,18.0,66,0.00,,,0.00,0,WeatherCatV1.15B25,2013-04-16 05:55:00,